Location: Nirvana
(45.0297°N, 77.2628°W)
Time: 01:11:27
(UTC-04:00)

N. Korean satellite - Visible Passes

Search period start: 16 October 2019 00:00
Search period end: 26 October 2019 00:00
Orbit: 455 x 508 km, 97.2° (Epoch: 15 October)

Date Brightness Start Highest point End Pass type
(mag) Time Alt. Az. Time Alt. Az. Time Alt. Az.
16 Oct 10.4 19:26:50 10° WSW 19:27:57 11° W 19:29:04 10° WNW visible
17 Oct 7.9 06:48:24 10° NNE 06:51:52 45° E 06:55:22 10° S visible
17 Oct 9.5 18:59:43 10° SSW 19:02:27 22° W 19:05:12 10° NW visible
18 Oct 9.4 06:23:34 10° NE 06:26:28 23° E 06:29:25 10° SSE visible
19 Oct 10.3 05:59:34 10° ENE 06:00:59 12° E 06:02:25 10° ESE visible
20 Oct 10.1 19:18:12 10° SW 19:20:04 14° W 19:21:57 10° WNW visible
21 Oct 8.4 06:40:40 10° NNE 06:44:03 37° E 06:47:28 10° SSE visible
21 Oct 9.0 18:51:36 10° SSW 18:54:35 27° W 18:57:36 10° NW visible
22 Oct 9.7 06:15:57 10° NE 06:18:37 19° E 06:21:18 10° SE visible
24 Oct 7.2 06:57:56 10° NNE 07:01:35 63° E 07:05:14 10° S visible
24 Oct 9.9 19:09:48 10° SW 19:12:09 17° W 19:14:31 10° NW visible
25 Oct 8.8 06:32:55 10° NNE 06:36:12 30° E 06:39:30 10° SSE visible
25 Oct 8.5 18:43:31 10° SSW 18:46:41 34° W 18:49:54 10° NNW visible
